SCP
0 0 0 0 0 0 0 0 0 0 0 0 -0 0 0 -0 -0 0 0 0 0 0 0 0 0 0 0 0 0 0 0 0 0
0 0 0 0 0 0 0 0 0 0 0 -0 -0 -0 -0 -0 -0 0 0 0 0 0 0 0 0 0 0 0 0 0 0 0 0
0 -0 0 0 0 0 0 0 0 0 0 -0 -0 -0 0 0 0 0 0 0 0 0 0 0 0 0 0 0 0 0 0 0 0
0 0 0 0 0 0 0 0 0 0 0 0 0 0 0 0 0 0 0 0 0 0 0 0 0 0 0 0 0 0 0 0 0
0 0 0 0 0 0 0 0 0 0 0 0 0 0 0 0 0 0 0 0 0 0 0 0 0 0 0 0 0 0 0 0 0
0 0 0 0 0 0 0 0 0 0 0 0 0 0 0 0 0 0 0 0 0 0 0 0 0 0 0 0 0 0 0 0 0
0 0 0 0 0 0 0 0 0 0 0 0 0 0 0 0 0 0 0 0 0 0 0 0 0 0 0 0 0 0 0 0 0
0 0 0 0 0 0 0 0 0 0 0 0 0 0 0 0 0 0 0 0 0 0 0 0 0 0 0 0 0 0 0 0 0
0 0 0 0 0 0 0 0 0 0 0 0 0 0 0 0 0 0 0 0 0 0 0 0 0 0 0 0 0 0 0 0 0
0 0 0 0 0 0 0 0 0 0 0 0 0 0 0 0 0 0 0 0 0 0 0 0 0 0 0 0 0 0 0 0 0
0 0 0 0 0 0 0 0 0 0 0 0 0 0 0 0 0 0 0 0 0 0 0 0 0 0 0 0 0 0 0 0 0
0 0 0 0 0 0 0 0 0 0 0 0 0 0 0 0 0 0 0 0 0 0 0 0 0 0 0 0 0 0 0 0 0
0 0 0 0 0 0 0 0 0 0 0 0 0 0 0 0 0 0 0 0 0 0 0 0 0 0 0 0 0 0 0 0 0
0 0 0 0 0 0 0 0 0 0 0 0 0 0 0 0 0 0 0 0 0 0 0 0 0 0 0 0 0 0 0 0 -0
0 0 0 0 0 0 0 0 0 0 0 0 0 0 0 0 0 0 0 0 0 0 0 0 0 0 0 0 0 0 0 0 0
0 0 0 0 0 0 0 0 0 0 0 0 0 0 0 0 0 0 0 0 0 0 0 0 0 0 0 0 0 0 0 0 0
0 0 0 0 0 0 0 0 0 0 0 0 0 0 0 0 0 0 0 0 0 0 0 0 0 0 0 0 0 0 0 0 0
0 0 0 0 0 0 0 0 0 0 0 0 0 0 0 0 0 0 0 0 0 0 0 0 0 0 0 0 0 0 0 0 0
0 0 0 0 0 0 0 0 0 0 0 0 0 0 0 0 0 0 0 0 -0 0 0 0 0 0 0 0 0 0 0 0 0
0 0 0 0 0 0 0 0 0 0 0 0 0 0 0 0 0 0 0 0 0 0 0 0 0 0 0 0 0 0 0 0 0
Wind_Speed_500mb
40 40 35 39 28 21 18 22 28 14 8 14 35 15 54 20 22 18 19 17 20 19 19 22 22 21 22 21 18 16 22 21 22
32 30 33 36 27 9 18 19 17 13 13 39 22 7 21 13 16 16 20 24 22 21 24 24 24 27 29 30 27 28 28 29 26
19 20 23 26 24 17 18 25 13 13 10 12 26 4 20 16 17 17 20 22 25 28 30 33 32 30 29 33 34 31 31 33 31
14 12 10 13 15 8 14 13 6 2 15 26 50 16 31 23 25 27 28 32 34 36 37 37 38 39 40 39 38 39 38 41 37
19 12 12 21 23 18 17 14 8 4 26 37 34 26 21 26 33 35 36 34 33 35 35 36 36 37 36 36 36 39 43 46 45
23 20 26 33 29 27 28 23 18 21 26 22 17 13 19 28 33 30 29 30 32 33 35 35 34 34 33 32 31 31 34 38 42
30 29 31 32 29 30 26 23 20 20 17 11 2 7 18 24 24 23 27 30 29 31 32 31 31 30 32 32 32 31 29 29 30
39 45 46 41 35 31 27 24 21 15 11 6 7 22 30 28 25 25 29 29 27 26 27 28 30 29 30 31 30 29 30 30 31
44 45 42 40 37 31 29 24 21 15 3 10 19 23 22 21 23 24 26 24 25 25 30 34 33 30 28 29 32 35 29 31 31
50 47 43 40 37 35 32 29 19 8 3 10 13 14 15 13 16 20 23 25 27 29 35 36 36 36 35 36 37 40 39 35 32
50 56 49 44 43 41 37 27 16 5 5 9 7 4 10 17 20 23 24 22 24 28 31 33 36 36 37 38 41 43 44 44 38
48 57 49 44 45 43 35 22 13 4 6 12 12 11 14 17 21 20 16 16 20 26 31 36 42 42 43 47 49 48 48 48 46
50 46 45 48 48 41 30 21 11 6 5 9 5 7 12 17 20 23 24 25 26 27 28 33 35 40 47 49 52 57 56 56 55
48 48 47 44 36 25 17 12 7 4 6 6 12 14 16 22 26 28 27 24 21 21 22 24 27 33 39 45 51 57 61 63 63
56 52 49 40 33 26 19 12 5 3 5 11 14 19 23 22 23 23 20 18 18 20 22 25 27 31 30 37 42 49 56 61 62
57 53 48 37 26 22 17 11 5 1 10 16 19 16 15 14 13 13 13 14 17 17 23 27 31 33 34 35 39 42 46 52 59
61 53 43 34 27 20 15 9 5 6 13 16 13 11 9 8 10 12 13 14 15 19 27 31 32 34 35 36 36 39 42 48 52
58 49 39 30 23 14 10 11 10 11 13 15 11 8 10 9 10 12 13 11 12 19 22 29 34 32 33 35 40 34 36 43 45
53 46 37 28 16 11 14 13 12 15 20 18 12 13 14 10 12 12 14 15 12 11 18 22 26 27 29 29 38 34 30 38 36
49 38 28 18 16 18 18 15 17 24 22 18 18 17 13 10 8 11 15 19 24 29 24 24 25 27 27 30 35 38 29 37 40
Wind_Direction_500mb
192 197 191 206 229 231 222 231 241 199 263 315 313 328 298 302 279 280 291 310 314 323 325 329 324 318 314 315 314 311 303 302 300
179 187 181 189 195 210 257 236 219 244 317 213 297 255 279 282 262 272 286 289 296 304 306 305 306 307 306 303 300 297 294 294 296
191 201 187 202 211 244 247 233 235 303 319 246 194 316 313 318 302 293 300 303 306 308 308 303 300 297 293 289 289 286 286 286 287
155 163 213 205 207 227 185 188 174 193 208 190 210 262 295 318 322 324 317 315 311 307 305 306 306 302 298 291 283 279 277 278 275
141 143 184 180 163 144 135 135 138 153 177 204 219 246 285 313 319 317 313 309 312 317 318 318 317 315 312 305 297 289 282 276 272
146 151 158 149 144 138 125 123 121 117 140 167 207 277 308 311 311 314 317 323 327 328 330 331 328 328 323 322 319 310 297 287 281
149 147 151 148 137 127 125 136 139 140 147 163 139 338 324 320 316 320 325 328 330 334 335 336 342 339 340 336 332 325 316 308 302
144 140 143 143 140 135 135 148 157 153 140 113 332 325 325 318 324 336 337 336 341 346 343 346 346 342 339 341 340 337 334 337 342
160 157 157 152 150 148 150 155 155 152 114 350 333 324 319 328 335 342 346 355 1 1 4 8 5 360 352 347 345 353 350 343 339
184 173 172 165 162 162 161 164 159 147 297 325 332 331 341 349 8 13 19 29 31 36 35 32 29 27 21 16 10 5 358 349 335
183 176 177 172 169 168 168 163 176 203 340 351 356 38 45 51 43 34 31 47 50 43 38 34 33 30 24 17 13 6 6 7 354
182 180 176 174 174 171 162 170 182 129 91 117 109 76 51 48 41 36 45 58 53 57 59 50 43 38 33 29 24 17 11 6 3
174 174 169 166 166 165 165 151 108 64 119 150 140 67 71 60 53 49 70 75 77 69 51 45 38 34 30 27 24 22 18 14 12
172 170 166 163 161 159 154 147 124 181 142 120 91 75 83 87 72 68 84 72 58 46 36 25 22 23 23 22 21 22 21 18 17
168 166 164 168 166 164 161 150 181 157 107 103 91 98 99 86 76 70 66 56 36 23 14 8 3 4 7 11 15 16 19 21 20
163 165 166 166 173 173 168 172 225 144 125 117 109 99 92 74 58 45 34 20 15 6 359 356 358 351 352 358 0 5 11 16 19
164 167 170 174 180 185 182 191 203 166 143 139 117 89 75 80 40 17 1 351 350 359 359 352 346 347 346 353 356 353 358 6 11
169 171 172 175 182 188 194 181 172 164 146 138 127 99 100 76 31 9 1 359 9 14 7 1 3 358 358 359 3 356 354 353 359
169 168 171 174 182 189 180 175 179 157 140 131 120 121 109 72 71 56 51 46 36 342 341 346 355 3 2 360 359 356 358 358 350
167 167 170 177 173 168 175 174 166 145 138 133 132 133 105 77 39 8 354 343 334 328 332 326 327 337 345 345 351 358 355 1 360
Wind_Speed_850mb
40 40 35 39 28 21 18 22 28 14 8 14 35 15 54 20 22 18 19 17 20 19 19 22 22 21 22 21 18 16 22 21 22
32 30 33 36 27 9 18 19 17 13 13 39 22 7 21 13 16 16 20 24 22 21 24 24 24 27 29 30 27 28 28 29 26
19 20 23 26 24 17 18 25 13 13 10 12 26 4 20 16 17 17 20 22 25 28 30 33 32 30 29 33 34 31 31 33 31
14 12 10 13 15 8 14 13 6 2 15 26 50 16 31 23 25 27 28 32 34 36 37 37 38 39 40 39 38 39 38 41 37
19 12 12 21 23 18 17 14 8 4 26 37 34 26 21 26 33 35 36 34 33 35 35 36 36 37 36 36 36 39 43 46 45
23 20 26 33 29 27 28 23 18 21 26 22 17 13 19 28 33 30 29 30 32 33 35 35 34 34 33 32 31 31 34 38 42
30 29 31 32 29 30 26 23 20 20 17 11 2 7 18 24 24 23 27 30 29 31 32 31 31 30 32 32 32 31 29 29 30
39 45 46 41 35 31 27 24 21 15 11 6 7 22 30 28 25 25 29 29 27 26 27 28 30 29 30 31 30 29 30 30 31
44 45 42 40 37 31 29 24 21 15 3 10 19 23 22 21 23 24 26 24 25 25 30 34 33 30 28 29 32 35 29 31 31
50 47 43 40 37 35 32 29 19 8 3 10 13 14 15 13 16 20 23 25 27 29 35 36 36 36 35 36 37 40 39 35 32
50 56 49 44 43 41 37 27 16 5 5 9 7 4 10 17 20 23 24 22 24 28 31 33 36 36 37 38 41 43 44 44 38
48 57 49 44 45 43 35 22 13 4 6 12 12 11 14 17 21 20 16 16 20 26 31 36 42 42 43 47 49 48 48 48 46
50 46 45 48 48 41 30 21 11 6 5 9 5 7 12 17 20 23 24 25 26 27 28 33 35 40 47 49 52 57 56 56 55
48 48 47 44 36 25 17 12 7 4 6 6 12 14 16 22 26 28 27 24 21 21 22 24 27 33 39 45 51 57 61 63 63
56 52 49 40 33 26 19 12 5 3 5 11 14 19 23 22 23 23 20 18 18 20 22 25 27 31 30 37 42 49 56 61 62
57 53 48 37 26 22 17 11 5 1 10 16 19 16 15 14 13 13 13 14 17 17 23 27 31 33 34 35 39 42 46 52 59
61 53 43 34 27 20 15 9 5 6 13 16 13 11 9 8 10 12 13 14 15 19 27 31 32 34 35 36 36 39 42 48 52
58 49 39 30 23 14 10 11 10 11 13 15 11 8 10 9 10 12 13 11 12 19 22 29 34 32 33 35 40 34 36 43 45
53 46 37 28 16 11 14 13 12 15 20 18 12 13 14 10 12 12 14 15 12 11 18 22 26 27 29 29 38 34 30 38 36
49 38 28 18 16 18 18 15 17 24 22 18 18 17 13 10 8 11 15 19 24 29 24 24 25 27 27 30 35 38 29 37 40
Wind_Direction_850mb
192 197 191 206 229 231 222 231 241 199 263 315 313 328 298 302 279 280 291 310 314 323 325 329 324 318 314 315 314 311 303 302 300
179 187 181 189 195 210 257 236 219 244 317 213 297 255 279 282 262 272 286 289 296 304 306 305 306 307 306 303 300 297 294 294 296
191 201 187 202 211 244 247 233 235 303 319 246 194 316 313 318 302 293 300 303 306 308 308 303 300 297 293 289 289 286 286 286 287
155 163 213 205 207 227 185 188 174 193 208 190 210 262 295 318 322 324 317 315 311 307 305 306 306 302 298 291 283 279 277 278 275
141 143 184 180 163 144 135 135 138 153 177 204 219 246 285 313 319 317 313 309 312 317 318 318 317 315 312 305 297 289 282 276 272
146 151 158 149 144 138 125 123 121 117 140 167 207 277 308 311 311 314 317 323 327 328 330 331 328 328 323 322 319 310 297 287 281
149 147 151 148 137 127 125 136 139 140 147 163 139 338 324 320 316 320 325 328 330 334 335 336 342 339 340 336 332 325 316 308 302
144 140 143 143 140 135 135 148 157 153 140 113 332 325 325 318 324 336 337 336 341 346 343 346 346 342 339 341 340 337 334 337 342
160 157 157 152 150 148 150 155 155 152 114 350 333 324 319 328 335 342 346 355 1 1 4 8 5 360 352 347 345 353 350 343 339
184 173 172 165 162 162 161 164 159 147 297 325 332 331 341 349 8 13 19 29 31 36 35 32 29 27 21 16 10 5 358 349 335
183 176 177 172 169 168 168 163 176 203 340 351 356 38 45 51 43 34 31 47 50 43 38 34 33 30 24 17 13 6 6 7 354
182 180 176 174 174 171 162 170 182 129 91 117 109 76 51 48 41 36 45 58 53 57 59 50 43 38 33 29 24 17 11 6 3
174 174 169 166 166 165 165 151 108 64 119 150 140 67 71 60 53 49 70 75 77 69 51 45 38 34 30 27 24 22 18 14 12
172 170 166 163 161 159 154 147 124 181 142 120 91 75 83 87 72 68 84 72 58 46 36 25 22 23 23 22 21 22 21 18 17
168 166 164 168 166 164 161 150 181 157 107 103 91 98 99 86 76 70 66 56 36 23 14 8 3 4 7 11 15 16 19 21 20
163 165 166 166 173 173 168 172 225 144 125 117 109 99 92 74 58 45 34 20 15 6 359 356 358 351 352 358 0 5 11 16 19
164 167 170 174 180 185 182 191 203 166 143 139 117 89 75 80 40 17 1 351 350 359 359 352 346 347 346 353 356 353 358 6 11
169 171 172 175 182 188 194 181 172 164 146 138 127 99 100 76 31 9 1 359 9 14 7 1 3 358 358 359 3 356 354 353 359
169 168 171 174 182 189 180 175 179 157 140 131 120 121 109 72 71 56 51 46 36 342 341 346 355 3 2 360 359 356 358 358 350
167 167 170 177 173 168 175 174 166 145 138 133 132 133 105 77 39 8 354 343 334 328 332 326 327 337 345 345 351 358 355 1 360